PALAPA C2

Last updated on Sun Nov 27 2016 00:16:41 GMT+0000 (Coordinated Universal Time)

1 23864U 96030A 16331.09632074 -.00000025 00000-0 00000+0 0 9993 2 23864 5.4122 59.9922 0004127 104.9463 323.3433 0.99003286 75185
UTC large
Height (km)
Speed (km/s)
/
Latitude / Longitude
Inclination (degrees)
Orbital Period (minutes)
Azimuth
Elevation
Range (km)
Doppler Factor

Next 0 passes for location: London (51.5072 / 0.1276)

Sorry there are no passes over London.
PALAPA C2